Orbital Elements at Epoch 2459000.5 (2020-May-31.0) TDB
Reference: JPL 12 (heliocentric ecliptic J2000)
Element | Value | Uncertainty (1-sigma) | Units |
e | .07223107516016786 | 9.8042e-08 | |
a | 3.091969359194518 | 3.8479e-08 | au |
q | 2.868633088017603 | 2.9916e-07 | au |
i | 10.27699042426498 | 1.0749e-05 | deg |
node | 33.08689426938929 | 2.6919e-05 | deg |
peri | 11.91627289526474 | 4.9303e-05 | deg |
M | 232.4408639355787 | 4.0067e-05 | deg |
tp | 2459704.155793136615 (2022-May-04.65579314) | 0.00022417 | TDB |
period | 1985.871755992835 5.44 | 3.7071e-05 1.015e-07 | d yr |
n | .1812805881918685 | 3.384e-09 | deg/d |
Q | 3.315305630371433 | 4.1259e-08 | au |
|
| | Orbit Determination Parameters
Additional Information
|